Powrót do katalogu

STARLINK-3572

AktywnyŁącznośćVLEO
NORAD 51879·PAYLOAD·🇺🇸 United States

Wystrzelony Mar 3, 2022 z Cape Canaveral Space Force Station

Loading…

Następne Przeloty (najbliższe 24 godziny)

TLE

ŚwieżeSource: CelesTrak SupGP

Epoka: Sep 14, 2026, 20:33 UTC

1 51879C 22022AD  26257.85673611  .00028995  00000+0  85656-3 0  2579
2 51879  53.1583 215.7469 0001502  98.8413 155.5726 15.34379460    16

Śledź STARLINK-3572 w czasie rzeczywistym z AllMySat

Download on the App Store